Radiation Dose measured at exhaust stack monitor of Miscellaneous Solid Waste Incinerator Building/Incinerator raregas monitor
Date,Time,Incinerator Gas Monitor(cps),Wind Direction,Wind Velocity(m/s)
2023/04/10,00:00,1.4,west-northwest,0.7
2023/04/10,00:10,1.5,-,CALM
2023/04/10,00:20,1.5,west-northwest,1.6
2023/04/10,00:30,1.4,west-northwest,1.9
2023/04/10,00:40,1.5,west-northwest,0.9
2023/04/10,00:50,1.5,west-southwest,1.3
2023/04/10,01:00,1.4,west-northwest,1.2
2023/04/10,01:10,1.5,northwest,1.3
2023/04/10,01:20,1.4,west-northwest,0.6
2023/04/10,01:30,1.5,west-northwest,1.0
2023/04/10,01:40,1.6,-,CALM
2023/04/10,01:50,1.4,-,CALM
2023/04/10,02:00,1.5,-,CALM
2023/04/10,02:10,1.5,west-southwest,0.8
2023/04/10,02:20,1.5,west-northwest,1.1
2023/04/10,02:30,1.5,west-northwest,0.6
2023/04/10,02:40,1.5,west,0.7
2023/04/10,02:50,1.4,southwest,1.3
2023/04/10,03:00,1.5,west-northwest,1.8
2023/04/10,03:10,1.5,west-northwest,1.1
2023/04/10,03:20,1.6,-,CALM
2023/04/10,03:30,1.5,west,0.5
2023/04/10,03:40,1.6,west,0.6
2023/04/10,03:50,1.5,-,CALM
2023/04/10,04:00,1.5,west,0.8
2023/04/10,04:10,1.5,-,CALM
2023/04/10,04:20,1.5,south,0.6
2023/04/10,04:30,1.5,-,CALM
2023/04/10,04:40,1.5,-,CALM
2023/04/10,04:50,1.5,south-southwest,1.1
2023/04/10,05:00,1.6,west-southwest,0.5
2023/04/10,05:10,1.6,-,CALM
2023/04/10,05:20,1.4,west-southwest,0.7
2023/04/10,05:30,1.6,west-southwest,0.8
2023/04/10,05:40,1.5,west-southwest,1.0
2023/04/10,05:50,1.4,west-southwest,1.1
2023/04/10,06:00,1.5,west-southwest,1.3
2023/04/10,06:10,1.5,west-southwest,0.8
2023/04/10,06:20,1.4,-,CALM
2023/04/10,06:30,1.5,west-southwest,0.7
2023/04/10,06:40,1.5,west-southwest,0.8
2023/04/10,06:50,1.5,west-southwest,1.0
2023/04/10,07:00,1.5,south-southwest,1.7
2023/04/10,07:10,1.5,south-southwest,2.5
2023/04/10,07:20,1.6,south-southwest,3.9
2023/04/10,07:30,1.5,south,3.4
2023/04/10,07:40,1.5,south,3.9
2023/04/10,07:50,1.5,south,3.7
2023/04/10,08:00,1.5,south,4.9
2023/04/10,08:10,1.5,south,5.5
2023/04/10,08:20,1.5,south,6.2
2023/04/10,08:30,1.6,south,5.9
2023/04/10,08:40,1.4,south,5.7
2023/04/10,08:50,1.5,south,7.0
2023/04/10,09:00,1.6,south-southeast,5.7
2023/04/10,09:10,1.4,south-southeast,5.9
2023/04/10,09:20,1.5,south-southeast,6.5
2023/04/10,09:30,1.5,south-southeast,5.7
2023/04/10,09:40,1.5,south-southeast,6.8
2023/04/10,09:50,1.5,south-southeast,6.8
2023/04/10,10:00,1.6,south-southeast,5.9
2023/04/10,10:10,1.5,south-southeast,6.8
2023/04/10,10:20,1.5,south-southeast,6.7
2023/04/10,10:30,1.7,south-southeast,6.2
2023/04/10,10:40,1.5,south,6.7
2023/04/10,10:50,1.5,south,7.2
2023/04/10,11:00,1.5,south,7.2
2023/04/10,11:10,1.5,south-southeast,7.1
2023/04/10,11:20,1.4,south,6.9
2023/04/10,11:30,1.5,south,6.9
2023/04/10,11:40,1.5,south-southeast,6.9
2023/04/10,11:50,1.5,south-southeast,7.3
2023/04/10,12:00,1.5,south-southeast,6.9
2023/04/10,12:10,1.5,south,6.5
2023/04/10,12:20,1.5,south,7.4
2023/04/10,12:30,1.5,south,5.2
2023/04/10,12:40,1.5,south,6.0
2023/04/10,12:50,1.4,south-southeast,6.7
2023/04/10,13:00,1.5,south,7.1
2023/04/10,13:10,1.5,south,7.3
2023/04/10,13:20,1.5,south,6.3
2023/04/10,13:30,1.5,south,6.4
2023/04/10,13:40,1.6,south-southeast,6.2
2023/04/10,13:50,1.5,south-southeast,5.6
2023/04/10,14:00,1.5,south-southeast,5.3
2023/04/10,14:10,1.5,south,6.3
2023/04/10,14:20,1.5,south,6.9
2023/04/10,14:30,1.6,south,6.9
2023/04/10,14:40,1.6,south-southeast,5.9
2023/04/10,14:50,1.5,south-southeast,6.0
2023/04/10,15:00,1.5,south-southeast,5.6
2023/04/10,15:10,1.4,south-southeast,6.0
2023/04/10,15:20,1.6,south,5.1
2023/04/10,15:30,1.6,south,5.9
2023/04/10,15:40,1.5,south-southeast,5.8
2023/04/10,15:50,1.5,south-southeast,5.9
2023/04/10,16:00,1.5,south-southeast,5.4
2023/04/10,16:10,1.5,south-southeast,5.6
2023/04/10,16:20,1.6,south-southeast,6.4
2023/04/10,16:30,1.5,south,4.3
2023/04/10,16:40,1.6,south,4.8
2023/04/10,16:50,1.5,south,4.8
2023/04/10,17:00,1.5,south-southeast,3.0
2023/04/10,17:10,1.5,south-southeast,2.7
2023/04/10,17:20,1.6,south-southeast,2.6
2023/04/10,17:30,1.6,south-southeast,2.8
2023/04/10,17:40,1.6,south,2.8
2023/04/10,17:50,1.5,south-southwest,2.9
2023/04/10,18:00,1.5,south-southwest,3.5
2023/04/10,18:10,1.5,south,3.5
2023/04/10,18:20,1.6,south-southwest,3.4
2023/04/10,18:30,1.4,south-southwest,3.4
2023/04/10,18:40,1.5,south-southwest,2.1
2023/04/10,18:50,1.5,southwest,1.1
2023/04/10,19:00,1.5,south-southwest,2.1
2023/04/10,19:10,1.6,south-southwest,1.2
2023/04/10,19:20,1.5,west-southwest,1.0
2023/04/10,19:30,1.6,west-southwest,1.2
2023/04/10,19:40,1.6,west-southwest,0.9
2023/04/10,19:50,1.5,north-northeast,1.1
2023/04/10,20:00,1.6,north,0.8
2023/04/10,20:10,1.4,west-southwest,1.0
2023/04/10,20:20,1.5,west-southwest,0.9
2023/04/10,20:30,1.4,west-southwest,1.1
2023/04/10,20:40,1.5,west-southwest,1.3
2023/04/10,20:50,1.5,west-southwest,1.2
2023/04/10,21:00,1.4,west-southwest,0.8
2023/04/10,21:10,1.6,south-southwest,0.9
2023/04/10,21:20,1.6,north-northwest,0.8
2023/04/10,21:30,1.5,west-northwest,0.9
2023/04/10,21:40,1.4,north-northwest,0.9
2023/04/10,21:50,1.5,north,0.7
2023/04/10,22:00,1.5,-,CALM
2023/04/10,22:10,1.6,west,0.7
2023/04/10,22:20,1.6,west-southwest,0.7
2023/04/10,22:30,1.5,west,0.9
2023/04/10,22:40,1.5,west-northwest,1.1
2023/04/10,22:50,1.5,northwest,0.6
2023/04/10,23:00,1.6,north-northeast,0.6
2023/04/10,23:10,1.5,-,CALM
2023/04/10,23:20,1.4,south,0.9
2023/04/10,23:30,1.4,west-southwest,0.8
2023/04/10,23:40,1.6,west-southwest,0.5
2023/04/10,23:50,1.5,west-southwest,0.7
